Location: Ajisawe
(8.4333°N, 4.3833°E)
Time: 13:28:55
(UTC+00:00)

Courier 1B Rocket - Pass Details

Date: 23 April 2021
Orbit: 920 x 1202 km, 28.3° (Epoch: 10 May)

Event Time Altitude Azimuth Distance (km) Brightness Sun altitude
Rises 13:52:14 0° 227° (SW) 3,593 8.2 57.4°
Reaches altitude 10° 13:54:59 10° 221° (SW) 2,626 7.7 56.8°
Maximum altitude 14:00:57 45° 150° (SSE) 1,220 5.9 55.3°
Drops below altitude 10° 14:06:52 10° 78° (ENE) 2,612 7.0 53.9°
Sets 14:09:36 0° 72° (ENE) 3,572 7.6 53.2°
